Date String (YYYY-MM-DD hh:mm:ss) UTC,Instrument flags,Ambient pressure (hPa),Sample flow (lpm),Bypass flow (lpm),Sample temperature (°C),Ambient temperature (°C),ASC tube jacket temperature (°C),LED temperature (°C),Box temperature (°C),Sample RH (%),Span deviation,Mass concentration (μg/m³),Mass concentration (μg/m³),Mass concentration (μg/m³)
DateTimeUTC,F1_M11,P_M11,Q1_M11,Q2_M11,T1_M11,T2_M11,T3_M11,T4_M11,T5_M11,U1_M11,ZSPAN_M11,X2_M11,X0_M11,X1_M11
2022-03-24 20:00:00,,0824.6,5.02,0.00,28.2,27.4,00.0,37.1,30.0,08.6,0000.0,0001.21,0002.34,0000.77
2022-03-24 20:01:00,,0824.6,4.99,0.00,28.2,27.4,00.0,37.1,30.0,08.4,0000.0,0001.18,0002.23,0000.76
2022-03-24 20:02:00,,0824.6,4.99,0.00,28.3,27.5,00.0,37.1,30.0,08.3,0000.0,0001.16,0002.21,0000.75
2022-03-24 20:03:00,,0824.6,5.01,0.00,28.3,27.5,00.0,37.1,30.0,08.4,0000.0,0001.17,0002.20,0000.75
2022-03-24 20:04:00,,0824.6,5.01,0.00,28.3,27.5,00.0,37.1,30.0,08.4,0000.0,0001.16,0002.01,0000.74
2022-03-24 20:05:00,,0824.6,4.99,0.00,28.3,27.4,00.0,37.1,30.1,08.6,0000.0,0001.15,0001.93,0000.75
2022-03-24 20:06:00,,0824.5,4.99,0.00,28.3,27.4,00.0,37.2,30.0,08.6,0000.0,0001.17,0001.96,0000.74
2022-03-24 20:07:00,,0824.5,5.01,0.00,28.3,27.4,00.0,37.2,30.1,08.8,0000.0,0001.20,0002.10,0000.72
2022-03-24 20:08:00,,0824.5,5.01,0.00,28.3,27.5,00.0,37.2,30.1,08.5,0000.0,0001.15,0002.07,0000.70
2022-03-24 20:09:00,,0824.4,4.99,0.00,28.3,27.5,00.0,37.2,30.1,08.4,0000.0,0001.15,0001.99,0000.69
2022-03-24 20:10:00,,0824.4,5.00,0.00,28.3,27.5,00.0,37.2,30.1,08.4,0000.0,0001.10,0001.92,0000.68
2022-03-24 20:11:00,,0824.4,5.00,0.00,28.3,27.5,00.0,37.2,30.1,08.3,0000.0,0001.08,0001.91,0000.69
2022-03-24 20:12:00,,0824.4,4.99,0.00,28.3,27.5,00.0,37.2,30.1,08.1,0000.0,0001.12,0002.02,0000.69
2022-03-24 20:13:00,,0824.5,4.99,0.00,28.3,27.5,00.0,37.2,30.1,08.1,0000.0,0001.15,0002.06,0000.69
2022-03-24 20:14:00,,0824.4,5.01,0.00,28.3,27.5,00.0,37.2,30.1,08.3,0000.0,0001.14,0002.04,0000.68
2022-03-24 20:15:00,,0824.4,5.00,0.00,28.3,27.5,00.0,37.2,30.1,08.2,0000.0,0001.14,0002.78,0000.68
2022-03-24 20:16:00,,0824.3,4.99,0.00,28.4,27.5,00.0,37.2,30.1,08.2,0000.0,0001.17,0002.91,0000.69
2022-03-24 20:17:00,,0824.3,4.99,0.00,28.4,27.5,00.0,37.3,30.1,08.2,0000.0,0001.12,0002.80,0000.68
2022-03-24 20:18:00,,0824.4,5.01,0.00,28.4,27.5,00.0,37.3,30.2,08.2,0000.0,0001.09,0002.69,0000.69
2022-03-24 20:19:00,,0824.4,4.99,0.00,28.4,27.5,00.0,37.3,30.2,08.3,0000.0,0001.12,0002.69,0000.70
2022-03-24 20:20:00,,0824.4,5.00,0.00,28.4,27.5,00.0,37.3,30.2,08.2,0000.0,0001.10,0002.63,0000.70
2022-03-24 20:21:00,,0824.4,5.01,0.00,28.4,27.5,00.0,37.3,30.2,08.1,0000.0,0001.14,0002.76,0000.71
2022-03-24 20:22:00,,0824.4,4.99,0.00,28.4,27.5,00.0,37.3,30.2,08.2,0000.0,0001.17,0002.79,0000.71
2022-03-24 20:23:00,,0824.4,5.00,0.00,28.4,27.5,00.0,37.3,30.2,08.4,0000.0,0001.13,0002.70,0000.71
2022-03-24 20:24:00,,0824.3,5.01,0.00,28.4,27.5,00.0,37.3,30.2,08.1,0000.0,0001.09,0002.65,0000.71
2022-03-24 20:25:00,,0824.3,5.00,0.00,28.4,27.5,00.0,37.3,30.2,08.4,0000.0,0001.07,0002.65,0000.71
2022-03-24 20:26:00,,0824.3,4.99,0.00,28.4,27.5,00.0,37.3,30.1,08.3,0000.0,0001.12,0002.22,0000.72
2022-03-24 20:27:00,,0824.2,5.01,0.00,28.4,27.5,00.0,37.3,30.1,08.3,0000.0,0001.14,0002.12,0000.71
2022-03-24 20:28:00,,0824.2,4.99,0.00,28.4,27.5,00.0,37.3,30.2,08.2,0000.0,0001.15,0002.17,0000.71
2022-03-24 20:29:00,,0824.2,4.99,0.00,28.4,27.5,00.0,37.3,30.2,08.1,0000.0,0001.12,0002.07,0000.71
2022-03-24 20:30:00,,0824.2,5.01,0.00,28.4,27.5,00.0,37.3,30.2,08.2,0000.0,0001.10,0002.09,0000.70
2022-03-24 20:31:00,,0824.1,5.01,0.00,28.4,27.5,00.0,37.3,30.2,08.1,0000.0,0001.09,0002.10,0000.70
2022-03-24 20:32:00,,0824.2,5.00,0.00,28.4,27.5,00.0,37.3,30.2,08.2,0000.0,0001.04,0001.97,0000.69
2022-03-24 20:33:00,,0824.2,4.99,0.00,28.4,27.5,00.0,37.3,30.2,08.2,0000.0,0000.99,0001.89,0000.68
2022-03-24 20:34:00,,0824.2,5.01,0.00,28.4,27.5,00.0,37.3,30.2,08.4,0000.0,0001.01,0001.92,0000.69
2022-03-24 20:35:00,,0824.2,4.99,0.00,28.5,27.6,00.0,37.4,30.2,08.3,0000.0,0001.01,0001.92,0000.68
2022-03-24 20:36:00,,0824.2,4.99,0.00,28.5,27.6,00.0,37.4,30.2,08.1,0000.0,0001.05,0001.98,0000.69
2022-03-24 20:37:00,,0824.2,5.01,0.00,28.5,27.6,00.0,37.4,30.2,08.5,0000.0,0001.02,0001.81,0000.69
2022-03-24 20:38:00,,0824.1,5.01,0.00,28.5,27.6,00.0,37.4,30.2,08.2,0000.0,0000.97,0001.62,0000.70
2022-03-24 20:39:00,,0824.1,4.98,0.00,28.5,27.6,00.0,37.4,30.3,08.3,0000.0,0000.98,0002.52,0000.70
2022-03-24 20:40:00,,0824.1,5.00,0.00,28.5,27.6,00.0,37.4,30.3,08.3,0000.0,0000.98,0002.57,0000.70
2022-03-24 20:41:00,,0824.1,5.00,0.00,28.5,27.6,00.0,37.4,30.3,08.1,0000.0,0001.00,0002.59,0000.70
2022-03-24 20:42:00,,0824.1,5.01,0.00,28.5,27.6,00.0,37.4,30.3,08.0,0000.0,0001.05,0002.71,0000.71
2022-03-24 20:43:00,,0824.1,5.01,0.00,28.5,27.6,00.0,37.4,30.3,08.2,0000.0,0001.09,0002.84,0000.71
2022-03-24 20:44:00,,0824.1,4.99,0.00,28.5,27.6,00.0,37.4,30.3,08.4,0000.0,0001.14,0003.04,0000.73
2022-03-24 20:45:00,,0824.1,4.99,0.00,28.5,27.6,00.0,37.4,30.3,08.4,0000.0,0001.14,0003.13,0000.73
2022-03-24 20:46:00,,0824.1,5.02,0.00,28.5,27.6,00.0,37.4,30.3,08.4,0000.0,0001.17,0003.29,0000.74
2022-03-24 20:47:00,,0824.2,4.99,0.00,28.5,27.6,00.0,37.4,30.3,08.4,0000.0,0001.16,0003.29,0000.73
2022-03-24 20:48:00,,0824.2,4.99,0.00,28.5,27.6,00.0,37.4,30.3,08.5,0000.0,0001.13,0003.22,0000.73
2022-03-24 20:49:00,,0824.1,5.01,0.00,28.5,27.6,00.0,37.4,30.3,08.2,0000.0,0001.15,0003.28,0000.74
2022-03-24 20:50:00,,0824.1,4.99,0.00,28.6,27.6,00.0,37.4,30.3,08.5,0000.0,0001.15,0002.56,0000.74
2022-03-24 20:51:00,,0824.1,4.99,0.00,28.6,27.7,00.0,37.5,30.3,08.5,0000.0,0001.17,0002.44,0000.75
2022-03-24 20:52:00,,0824.1,5.02,0.00,28.6,27.6,00.0,37.5,30.3,08.4,0000.0,0001.16,0002.44,0000.76
2022-03-24 20:53:00,,0824.1,5.00,0.00,28.6,27.6,00.0,37.5,30.4,08.2,0000.0,0001.14,0002.40,0000.75
2022-03-24 20:54:00,,0824.1,4.99,0.00,28.6,27.6,00.0,37.5,30.4,08.3,0000.0,0001.16,0002.44,0000.77
2022-03-24 20:55:00,,0824.1,5.02,0.00,28.6,27.6,00.0,37.5,30.4,08.2,0000.0,0001.17,0002.48,0000.78
2022-03-24 20:56:00,,0824.1,4.99,0.00,28.6,27.6,00.0,37.5,30.3,08.2,0000.0,0001.19,0002.42,0000.78
2022-03-24 20:57:00,,0824.0,5.00,0.00,28.6,27.7,00.0,37.5,30.4,08.2,0000.0,0001.18,0002.35,0000.78
2022-03-24 20:58:00,,0824.0,5.02,0.00,28.6,27.7,00.0,37.5,30.4,08.2,0000.0,0001.22,0002.47,0000.79
2022-03-24 20:59:00,,0824.1,5.00,0.00,28.6,27.7,00.0,37.5,30.4,08.2,0000.0,0001.27,0002.66,0000.80
